This is the latest recevied weather packets stored in our database for station/object WB9ZLM. If no packets are shown the sender has not sent any weather packets the latest 10 day(s).
| Time | Temp. | Humidity | Pressure | Rain* | Wind** | Luminosity | Snow |
|---|---|---|---|---|---|---|---|
| 1777602660 | 11.11° C | 73% | 1017.1 hPa | 0 mm | - | - | - |
| 1777601821 | 11.11° C | 74% | 1016.9 hPa | 0 mm | - | - | - |
| 1777601760 | 11.11° C | 74% | 1016.9 hPa | 0 mm | - | - | - |
| 1777600922 | 11.11° C | 76% | 1016.8 hPa | 0 mm | - | - | - |
| 1777600860 | 11.11° C | 76% | 1016.8 hPa | 0 mm | - | - | - |
| 1777600022 | 11.11° C | 74% | 1016.5 hPa | 0 mm | - | - | - |
| 1777599961 | 11.11° C | 74% | 1016.5 hPa | 0 mm | - | - | - |
| 1777599122 | 12.22° C | 64% | 1016.4 hPa | 0 mm | - | - | - |
| 1777599060 | 12.22° C | 64% | 1016.4 hPa | 0 mm | - | - | - |
| 1777598222 | 12.78° C | 63% | 1016.2 hPa | 0 mm | - | - | - |
| 1777598161 | 12.78° C | 63% | 1016.2 hPa | 0 mm | - | - | - |
| 1777597322 | 12.78° C | 61% | 1016.2 hPa | 0 mm | - | - | - |
| 1777597260 | 12.78° C | 61% | 1016.2 hPa | 0 mm | - | - | - |
| 1777596422 | 12.78° C | 59% | 1016.1 hPa | 0 mm | - | - | - |
| 1777596361 | 12.78° C | 59% | 1016.1 hPa | 0 mm | - | - | - |
| 1777595521 | 12.78° C | 59% | 1016 hPa | 0 mm | - | - | - |
| 1777595460 | 12.78° C | 59% | 1016 hPa | 0 mm | - | - | - |
| 1777594621 | 12.78° C | 57% | 1016 hPa | 0 mm | - | - | - |
| 1777594561 | 12.78° C | 57% | 1016 hPa | 0 mm | - | - | - |
| 1777593721 | 13.33° C | 57% | 1016.1 hPa | 0 mm | - | - | - |
| 1777593660 | 13.33° C | 57% | 1016.1 hPa | 0 mm | - | - | - |
| 1777592821 | 13.33° C | 56% | 1016.1 hPa | 0 mm | - | - | - |
| 1777592760 | 13.33° C | 56% | 1016.1 hPa | 0 mm | - | - | - |
| 1777591921 | 13.33° C | 57% | 1016.1 hPa | 0 mm | - | - | - |
| 1777591860 | 13.33° C | 57% | 1016.1 hPa | 0 mm | - | - | - |
* Rain latest hour (hover to see other rain measurements)
** Current wind speed in m/s (hover to see current wind gust speed)